Location: Cruquius
(52.3348°N, 4.6319°E)
Time: 17:09:43
(UTC+00:00)

ATLAS 2AS CENTAUR R/B - Pass Details

Date: 12 May 2021
Orbit: 949 x 1263 km, 63.7° (Epoch: 07 May)

Event Time Altitude Azimuth Distance (km) Brightness Sun altitude
Rises 22:27:50 0° 314° (NW) 4,105 6.9 -17.7°
Reaches altitude 10° 22:30:50 10° 308° (NW) 3,095 5.9 -17.8°
Maximum altitude 22:37:32 40° 242° (WSW) 1,595 3.5 -18.1°
Enters shadow 22:40:56 25° 192° (SSW) 2,044 3.7 -18.2°
